Temurmalik

Tajikistan     38˚02′57″N   69˚35′16″E
temp.,
°C
wind,
m/s
gust,
m/s
humid.,
%
clouds,
%
prec.,
mm/h
press.,
hPa
HPBL,
m
3 december, thu
thu323:00+8˚ese117227 0.0 102522
02:00+7˚e117357 0.0 102522
05:00+6˚nne007429 0.0 102622
08:00+7˚e116659 0.0 102622
11:00+10˚s115079 0.0 1026275
14:00+12˚sw1149100 0.0 1023443
17:00+10˚s2254100 0.0 102223
20:00+9˚ssw2263100 0.1 102343
4 december, fri
fri423:00+5˚s3488100 3.9 1024361
02:00+5˚ese1194100 5.3 1024168
05:00+5˚se1192100 6.8 1024156
08:00+5˚se1192100 0.6 1025183
11:00+5˚sse2390100 1.6 1025305
14:00+5˚ese1193100 1.8 1025179
17:00+5˚sse2295100 3.2 1026173
20:00+3˚s2396100 0.9 1028209
5 december, sat
sat523:00+3˚ssw2295100 1.8 1029144
02:00+3˚sse1194100 0.3 1029139
05:00+3˚se1193100 0.3 1028115
08:00+4˚n128899 0.0 1028152
11:00+7˚ne126887 0.0 1026663
14:00+9˚sse115921 0.0 1023877
17:00+7˚ssw236811 0.0 102441
20:00+5˚sse11810 0.0 102622
6 december, sun
sun623:00+4˚ne12850 0.0 102722
02:00+3˚nne34660 0.0 102860
05:00+2˚nne34660 0.0 102783
08:00+3˚nne466448 0.0 1028103
11:00+9˚ne354151 0.0 1026510
14:00+12˚ne343738 0.0 1023869
17:00+8˚nne355450 0.0 102286
20:00+7˚nne595099 0.0 1021175
7 december, mon
mon723:00+7˚nne4844100 0.0 1020191
02:00+7˚ne2246100 0.0 101933
05:00+6˚n3648100 0.0 1020130
08:00+7˚sw1152100 0.0 102224
11:00+6˚sse1268100 0.8 1025682
14:00+6˚nne2280100 0.2 1024395
17:00+5˚nne2285100 0.2 1026277
20:00+5˚nnw1285100 0.1 1027218